TimeCDT,TemperatureF,Dew PointF,Humidity,Sea Level PressureIn,VisibilityMPH,Wind Direction,Wind SpeedMPH,Gust SpeedMPH,PrecipitationIn,Events,Conditions,WindDirDegrees,DateUTC
12:52 AM,57.0,52.0,83,29.97,10.0,NW,5.8,-,N/A,,Clear,310,2013-06-17 05:52:00
1:52 AM,55.9,52.0,87,29.99,10.0,WNW,5.8,-,N/A,,Clear,300,2013-06-17 06:52:00
2:52 AM,54.0,50.0,86,29.99,10.0,North,8.1,-,N/A,,Clear,350,2013-06-17 07:52:00
3:52 AM,57.0,52.0,83,29.99,10.0,NW,6.9,-,N/A,,Clear,320,2013-06-17 08:52:00
4:52 AM,52.0,50.0,93,30.01,10.0,Calm,Calm,-,N/A,,Clear,0,2013-06-17 09:52:00
5:52 AM,55.9,52.0,87,30.01,10.0,NNW,8.1,-,N/A,,Clear,340,2013-06-17 10:52:00
6:52 AM,55.0,51.1,86,30.03,10.0,NW,5.8,-,N/A,,Clear,310,2013-06-17 11:52:00
7:52 AM,60.1,53.1,78,30.04,10.0,NNW,6.9,-,N/A,,Clear,330,2013-06-17 12:52:00
8:52 AM,62.1,54.0,75,30.05,10.0,NW,10.4,-,N/A,,Clear,320,2013-06-17 13:52:00
9:52 AM,64.9,54.0,68,30.07,10.0,WNW,10.4,-,N/A,,Clear,300,2013-06-17 14:52:00
10:52 AM,69.1,54.0,58,30.06,10.0,NNW,12.7,-,N/A,,Clear,330,2013-06-17 15:52:00
11:52 AM,72.0,53.1,51,30.05,10.0,NNW,15.0,20.7,N/A,,Clear,330,2013-06-17 16:52:00
12:52 PM,72.0,54.0,53,30.06,10.0,North,11.5,20.7,N/A,,Partly Cloudy,10,2013-06-17 17:52:00
1:52 PM,73.9,54.0,50,30.05,10.0,North,12.7,17.3,N/A,,Clear,10,2013-06-17 18:52:00
2:52 PM,75.0,55.0,50,30.04,10.0,North,11.5,-,N/A,,Partly Cloudy,10,2013-06-17 19:52:00
3:52 PM,75.0,52.0,44,30.04,10.0,North,6.9,-,N/A,,Clear,10,2013-06-17 20:52:00
4:52 PM,75.0,52.0,44,30.04,10.0,North,8.1,-,N/A,,Scattered Clouds,350,2013-06-17 21:52:00
5:52 PM,75.0,52.0,44,30.02,10.0,North,8.1,-,N/A,,Partly Cloudy,350,2013-06-17 22:52:00
6:52 PM,73.9,53.1,48,30.03,10.0,North,5.8,-,N/A,,Scattered Clouds,10,2013-06-17 23:52:00
7:52 PM,73.9,51.1,45,30.01,10.0,North,4.6,-,N/A,,Clear,10,2013-06-18 00:52:00
8:52 PM,69.1,54.0,58,30.01,10.0,North,3.5,-,N/A,,Clear,360,2013-06-18 01:52:00
9:52 PM,63.0,54.0,72,30.04,10.0,NNE,12.7,-,N/A,,Clear,30,2013-06-18 02:52:00
10:52 PM,59.0,51.1,75,30.06,10.0,NE,10.4,-,N/A,,Clear,50,2013-06-18 03:52:00
11:52 PM,57.9,50.0,75,30.05,10.0,South,3.5,-,N/A,,Clear,190,2013-06-18 04:52:00